This demonstration page uses our WeatherBlox Daily Observations layout. Learn more.

40.92945, -100.16068

Hourly Observations for December 5, 2016

Temp ( °F °C ) Dew Point ( °F °C ) Humidity (%) Winds ( mph kmh ) Pressure ( in mb ) Visibility ( mi km ) Precip ( " mm )
12:15 am 00:15 Clear 38 3.3 18 -7.6 45 45 SSW 15 24 29.8 1009 10 16.0934 N/A
12:35 am 00:35 Clear 38 3.4 19 -7.5 45 45 SSW 14 22 29.8 1009 10 16.0934 N/A
12:55 am 00:55 Clear 38 3.2 19 -7.5 46 46 SSW 12 19 29.8 1009 10 16.0934 N/A
1:15 am 01:15 Clear 37 2.8 19 -7.4 47 47 SSW 7 11 29.8 1009 10 16.0934 N/A
1:35 am 01:35 Clear 37 2.5 19 -7.4 48 48 Calm 29.77 1008 10 16.0934 N/A
1:55 am 01:55 Partly Cloudy 37 2.5 19 -7 50 50 SSW 5 7 29.8 1009 10 16.0934 N/A
2:15 am 02:15 Partly Cloudy 37 2.6 20 -6.9 50 50 ENE 5 7 29.77 1008 10 16.0934 N/A
2:35 am 02:35 Clear 37 2.8 20 -6.6 50 50 SE 7 11 29.77 1008 10 16.0934 N/A
2:55 am 02:55 Clear 37 3 20 -6.7 49 49 S 8 13 29.77 1008 10 16.0934 N/A
3:15 am 03:15 Partly Cloudy 37 2.5 21 -6.3 53 53 S 8 13 29.77 1008 10 16.0934 N/A
3:35 am 03:35 Clear 37 2.8 21 -6.2 52 52 SSE 3 6 29.77 1008 10 16.0934 N/A
3:55 am 03:55 Clear 37 2.8 21 -6 53 53 Calm 29.77 1008 10 16.0934 N/A
4:15 am 04:15 Clear 37 3 21 -5.9 52 52 SSE 3 6 29.77 1008 10 16.0934 N/A
4:35 am 04:35 Clear 37 2.5 22 -5.4 56 56 SSE 8 13 29.77 1008 10 16.0934 N/A
4:55 am 04:55 Clear 36 2.3 22 -5.6 56 56 SSE 5 7 29.77 1008 10 16.0934 N/A
5:15 am 05:15 Clear 35 1.6 22 -5.3 61 61 Calm 29.77 1008 10 16.0934 N/A
5:35 am 05:35 Clear 34 1 23 -5.1 64 64 SE 5 7 29.74 1007 10 16.0934 N/A
5:55 am 05:55 Clear 33 0.6 23 -5.1 66 66 SSE 7 11 29.74 1007 10 16.0934 N/A
6:15 am 06:15 Clear 33 0.5 23 -5 67 67 S 8 13 29.71 1006 10 16.0934 N/A
6:35 am 06:35 Clear 33 0.4 23 -4.8 68 68 SSE 8 13 29.71 1006 10 16.0934 N/A
6:55 am 06:55 Clear 33 0.8 23 -4.8 67 67 SSE 7 11 29.71 1006 10 16.0934 N/A
7:15 am 07:15 Clear 34 0.9 24 -4.7 67 67 SE 6 9 29.68 1005 10 16.0934 N/A
7:35 am 07:35 Clear 33 0.7 24 -4.6 68 68 SE 6 9 29.68 1005 10 16.0934 N/A
7:55 am 07:55 Sunny 34 0.9 24 -4.5 68 68 SE 6 9 29.68 1005 10 16.0934 N/A
8:15 am 08:15 Sunny 34 1 24 -4.3 68 68 SSE 7 11 29.68 1005 10 16.0934 N/A
8:35 am 08:35 Sunny 35 1.7 25 -4 66 66 SSW 5 7 29.71 1006 10 16.0934 N/A
8:55 am 08:55 Sunny 35 1.9 25 -3.9 66 66 Calm 29.71 1006 10 16.0934 N/A
9:15 am 09:15 Partly Cloudy 37 2.5 26 -3.6 64 64 Calm 29.68 1005 10 16.0934 N/A
9:35 am 09:35 Partly Cloudy 37 2.5 27 -2.9 68 68 ENE 3 6 29.68 1005 10 16.0934 N/A
9:55 am 09:55 Partly Cloudy 37 2.8 27 -2.9 66 66 Calm 29.68 1005 10 16.0934 N/A
10:15 am 10:15 Partly Cloudy 39 4 24 -4.5 54 54 SSW 5 7 29.68 1005 10 16.0934 N/A
10:55 am 10:55 Mostly Cloudy 41 5 24 -4.3 51 51 SSW 5 7 29.68 1005 10 16.0934 N/A
11:15 am 11:15 Cloudy 42 5.5 24 -4.4 49 49 W 5 7 29.68 1005 10 16.0934 N/A
11:35 am 11:35 Partly Cloudy 43 5.9 24 -4.2 49 49 W 3 6 29.65 1004 10 16.0934 N/A
11:55 am 11:55 Sunny 44 6.5 24 -4.4 46 46 W 5 7 29.62 1003 10 16.0934 N/A
12:15 pm 12:15 Partly Cloudy 44 6.7 25 -4.1 46 46 SSW 5 7 29.59 1002 10 16.0934 N/A
12:35 pm 12:35 Sunny 46 7.7 25 -4 44 44 S 9 15 29.59 1002 10 16.0934 N/A
12:55 pm 12:55 Partly Cloudy 47 8.6 25 -3.8 42 42 S 7 11 29.59 1002 10 16.0934 N/A
1:15 pm 13:15 Partly Cloudy 48 9.1 26 -3.5 41 41 S 8 13 29.56 1001 10 16.0934 N/A
1:35 pm 13:35 Partly Cloudy 50 10.1 26 -3.5 39 39 SSE 6 9 29.56 1001 10 16.0934 N/A
1:55 pm 13:55 Mostly Cloudy 51 10.5 26 -3.5 38 38 S 3 6 29.56 1001 10 16.0934 N/A
2:15 pm 14:15 Cloudy 51 10.6 27 -2.8 39 39 Calm 29.56 1001 10 16.0934 N/A
2:35 pm 14:35 Cloudy 52 11 27 -3 38 38 Calm 29.56 1001 10 16.0934 N/A
2:55 pm 14:55 Mostly Cloudy 52 11.2 27 -2.6 38 38 Calm 29.56 1001 10 16.0934 N/A
3:15 pm 15:15 Partly Cloudy 52 11.3 29 -1.8 40 40 WSW 3 6 29.59 1002 10 16.0934 N/A
3:35 pm 15:35 Sunny 55 12.7 27 -2.9 34 34 NW 20 31 29.56 1001 10 16.0934 N/A
4:15 pm 16:15 Partly Cloudy 54 12 20 -6.6 27 27 NW 20 31 29.62 1003 10 16.0934 N/A
4:35 pm 16:35 Mostly Cloudy 53 11.6 22 -5.5 30 30 NW 20 31 29.65 1004 10 16.0934 N/A
4:55 pm 16:55 Cloudy 50 10.2 25 -3.7 38 38 NNW 16 26 29.65 1004 10 16.0934 N/A
5:15 pm 17:15 Cloudy 48 9.1 28 -2.5 44 44 N 15 24 29.71 1006 10 16.0934 N/A
5:35 pm 17:35 Cloudy 45 7.3 30 -1 56 56 N 20 31 29.71 1006 10 16.0934 N/A
5:55 pm 17:55 Cloudy 43 6.1 30 -1 61 61 N 23 37 29.74 1007 10 16.0934 N/A
6:15 pm 18:15 Cloudy 41 5 29 -1.5 63 63 N 29 46 29.77 1008 10 16.0934 N/A
6:35 pm 18:35 Cloudy 36 2.4 27 -3 68 68 N 24 39 29.83 1010 10 16.0934 N/A
6:55 pm 18:55 Cloudy 34 1 24 -4.5 67 67 N 29 46 29.88 1012 10 16.0934 N/A
7:15 pm 19:15 Cloudy 33 0.5 23 -5.1 66 66 NNW 24 39 29.91 1013 10 16.0934 N/A
7:35 pm 19:35 Cloudy 32 0.2 21 -6.3 62 62 NNW 25 41 29.91 1013 10 16.0934 N/A
7:55 pm 19:55 Cloudy 31 -0.3 19 -7.4 59 59 N 21 33 29.94 1014 10 16.0934 N/A
8:15 pm 20:15 Cloudy 31 -0.6 19 -7.2 61 61 NNW 20 31 29.94 1014 10 16.0934 N/A
8:35 pm 20:35 Cloudy 31 -0.6 19 -7 62 62 NNW 17 28 29.94 1014 10 16.0934 N/A
8:55 pm 20:55 Cloudy 31 -0.7 19 -7.4 61 61 NNW 21 33 30.03 1017 10 16.0934 N/A
9:15 pm 21:15 Cloudy 30 -1.1 18 -7.8 61 61 NNW 22 35 30.03 1017 10 16.0934 N/A
9:35 pm 21:35 Cloudy 29 -1.4 17 -8.2 60 60 N 15 24 30.03 1017 10 16.0934 N/A
9:55 pm 21:55 Cloudy 29 -1.7 16 -8.8 59 59 NNW 22 35 30.06 1018 10 16.0934 N/A
10:15 pm 22:15 Cloudy 29 -1.8 16 -9 58 58 NNW 16 26 30.03 1017 10 16.0934 N/A
10:35 pm 22:35 Cloudy 28 -2 16 -9 59 59 NNW 15 24 30.03 1017 10 16.0934 N/A
10:55 pm 22:55 Cloudy 28 -2.3 15 -9.2 60 60 NNW 16 26 30.03 1017 10 16.0934 N/A
11:15 pm 23:15 Cloudy 28 -2.5 16 -9.1 61 61 NNW 14 22 30.06 1018 10 16.0934 N/A
11:35 pm 23:35 Cloudy 27 -2.6 16 -9.1 61 61 NNW 14 22 30.06 1018 10 16.0934 N/A
11:55 pm 23:55 Cloudy 27 -2.7 16 -9 62 62 NW 13 20 30.06 1018 10 16.0934 N/A

Powered by AerisWeather